Waarnemingen

Advertentie
Mijn weer
Katterjakk A, Zweden (2019): temperatuur & dauwpunt: 22.10.2020 00:00:00 - 28.10.2020 00:00:00 (CET)Katterjakk A, Zweden (2019): windsnelheid & windstoten: 22.10.2020 00:00:00 - 28.10.2020 00:00:00 (CET)Katterjakk A, Zweden (2019): windrichting: 22.10.2020 00:00:00 - 28.10.2020 00:00:00 (CET)Katterjakk A, Zweden (2019): luchtdruk: 22.10.2020 00:00:00 - 28.10.2020 00:00:00 (CET)Katterjakk A, Zweden (2019): zicht: 22.10.2020 00:00:00 - 28.10.2020 00:00:00 (CET)Katterjakk A, Zweden (2019): neerslag: 22.10.2020 00:00:00 - 28.10.2020 00:00:00 (CET)
Datum & Tijd tt [°C] td [°C] ff [km/u] ff [kn] fx [km/u] fx [kn] dd ppp [hPa] vv [km] rr [mm]
28.10.2020 00:00:00 -4,0 -4,1 8 4 12 6 WZW 994,1 50 0,0
27.10.2020 23:00:00 -8,2 -9,1 3 1 7 4 ZZO 994,6 45 0,0
27.10.2020 22:00:00 -9,1 -10,2 3 2 6 3 Z 994,7 7 0,0
27.10.2020 21:00:00 -8,3 -9,2 6 3 8 4 ZZW 994,8 0,7 0,0
27.10.2020 20:00:00 -7,4 -8,2 4 2 12 6 ZW 994,9 50 0,0
27.10.2020 19:00:00 -6,8 -7,6 5 3 16 9 ZZW 994,9 50 0,0
27.10.2020 18:00:00 -7,9 -8,8 3 2 19 11 Z 995,3 50 0,0
27.10.2020 17:00:00 -5,7 -6,2 9 5 21 11 Z 995,2 9 0,0
27.10.2020 16:00:00 -5,3 -5,7 14 8 21 11 Z 995,6 2,5 0,0
27.10.2020 15:00:00 -5,1 -5,5 16 8 22 12 Z 996,1 7 0,0
27.10.2020 14:00:00 -5,3 -5,7 18 10 22 12 Z 996,5 2,1 0,0
27.10.2020 13:00:00 -4,9 -5,3 13 7 19 10 Z 997,1 1,2 0,0
27.10.2020 12:00:00 -4,5 -4,8 8 4 19 10 Z 997,7 1,4 0,0
27.10.2020 11:00:00 -4,5 -4,8 10 6 16 9 Z 998,2 0,9 0,0
27.10.2020 10:00:00 -3,7 -3,8 2 1 20 11 NNW 998,8 1,2 0,0
27.10.2020 09:00:00 -5,1 -5,5 13 7 23 12 Z 999,6 2,3 0,0
27.10.2020 08:00:00 -4,7 -5,1 9 5 16 8 Z 1000,1 1,8 0,1
27.10.2020 07:00:00 -5,4 -5,8 9 5 17 9 Z 1000,0 1,0 0,0
27.10.2020 06:00:00 -3,7 -3,8 4 2 17 9 ZZO 999,6 0,5 0,0
27.10.2020 05:00:00 -4,7 -5,0 13 7 18 10 Z 1000,0 0,6 0,0
27.10.2020 04:00:00 -4,2 -4,3 6 3 9 5 WZW 1000,2 0,3 0,0
27.10.2020 03:00:00 -3,9 -4,0 5 3 8 4 Z 999,8 0,6 0,0
27.10.2020 02:00:00 -3,0 -3,1 2 1 7 4 NO 1000,0 25 0,0
27.10.2020 01:00:00 -3,1 -3,2 5 3 10 5 ZZW 1000,1 32 0,0
27.10.2020 00:00:00 -3,5 -3,6 6 3 16 9 ZW 999,8 3,1 0,0
26.10.2020 23:00:00 -4,5 -4,9 10 5 15 8 Z 999,3 6 0,0
26.10.2020 22:00:00 -4,2 -4,6 9 5 16 9 Z 999,1 2,0 0,0
26.10.2020 21:00:00 -3,0 -3,1 2 1 11 6 NO 998,6 1,6 0,0
26.10.2020 20:00:00 -2,7 -2,8 3 2 18 10 WNW 997,8 0,7 0,0
26.10.2020 19:00:00 -2,7 -2,8 3 2 - - Z 997,5 - 0,0
26.10.2020 18:00:00 -3,3 -3,4 10 5 14 8 Z 997,4 0,3 0,0
26.10.2020 17:00:00 -3,1 -3,2 11 6 14 8 ZZW 997,3 0,4 0,0
26.10.2020 16:00:00 -2,8 -2,9 9 5 14 7 ZZW 997,3 0,3 0,0
26.10.2020 15:00:00 -2,5 -2,6 5 3 13 7 ZZW 997,0 50 0,0
26.10.2020 14:00:00 -3,0 -3,3 8 4 14 7 Z 997,1 1,8 0,0
26.10.2020 13:00:00 -1,5 -2,9 3 2 17 9 ZW 996,7 50 0,0
26.10.2020 12:00:00 -2,4 -4,1 3 2 11 6 Z 997,0 50 0,0
26.10.2020 11:00:00 -0,6 -2,5 6 3 9 5 ZW 996,6 50 0,0
26.10.2020 10:00:00 -1,0 -2,1 3 2 10 5 NW 996,2 50 0,0
26.10.2020 09:00:00 -1,5 -2,8 6 3 11 6 N 995,9 50 0,0
26.10.2020 08:00:00 -1,9 -2,9 4 2 13 7 W 995,5 50 0,0
26.10.2020 07:00:00 -2,6 -3,0 2 1 9 5 NW 994,7 50 0,0
26.10.2020 06:00:00 -1,8 -2,9 5 3 9 5 NW 994,4 50 0,0
26.10.2020 05:00:00 -0,8 -2,1 6 3 20 11 N 994,1 50 0,0
26.10.2020 04:00:00 0,1 -2,3 9 5 32 17 N 993,8 14 0,0
26.10.2020 03:00:00 2,9 -2,8 22 12 47 25 ZZW 992,6 50 0,0
26.10.2020 02:00:00 -0,6 -3,1 33 18 66 35 O 993,0 50 0,0
26.10.2020 01:00:00 -0,4 -2,8 44 24 75 40 O 993,0 44 0,0
26.10.2020 00:00:00 -0,7 -2,9 44 24 75 40 O 993,3 18 0,0
25.10.2020 23:00:00 -0,4 -2,6 28 15 52 28 O 993,9 15 0,1
25.10.2020 22:00:00 -1,3 -2,0 26 14 - - OZO 995,0 1,7 0,2
25.10.2020 21:00:00 -1,8 -2,4 45 24 69 37 O 996,2 0,9 0,3
25.10.2020 20:00:00 -1,5 -3,4 39 21 73 39 O 997,4 2,5 0,1
25.10.2020 19:00:00 -1,3 -3,3 39 21 67 36 O 998,0 2,5 0,0
25.10.2020 18:00:00 -0,7 -4,1 39 21 56 30 O 998,8 19 0,0
25.10.2020 17:00:00 -0,1 -3,6 32 17 54 29 O 999,5 18 0,0
25.10.2020 16:00:00 1,6 -4,3 23 12 42 23 O 999,3 50 0,0
25.10.2020 15:00:00 0,3 -5,1 18 10 49 26 O 1000,6 50 0,0
25.10.2020 14:00:00 -0,6 -4,8 16 9 50 27 ZZO 1001,3 50 0,0
25.10.2020 13:00:00 -1,0 -4,5 22 12 45 24 O 1002,2 50 0,0
25.10.2020 12:00:00 -1,4 -4,9 9 5 28 15 OZO 1003,3 50 0,0
25.10.2020 11:00:00 -0,3 -4,5 15 8 40 22 O 1003,6 50 0,0
25.10.2020 10:00:00 -0,5 -3,4 21 12 33 18 O 1003,7 50 0,0
25.10.2020 09:00:00 -2,3 -4,5 4 2 19 10 Z 1004,5 50 0,0
25.10.2020 08:00:00 -3,6 -5,0 6 3 18 10 ZW 1005,1 50 0,0
25.10.2020 07:00:00 -5,0 -5,4 3 1 11 6 NW 1004,9 50 0,0
25.10.2020 06:00:00 -6,8 -7,7 5 3 11 6 WZW 1005,3 50 0,0
25.10.2020 05:00:00 -6,7 -7,5 3 2 11 6 NNW 1005,3 50 0,0
25.10.2020 04:00:00 -5,6 -8,3 12 6 16 9 Z 1005,3 50 0,0
25.10.2020 03:00:00 -5,0 -7,3 9 5 16 9 ZZW 1005,3 50 0,0
25.10.2020 02:00:00 -5,9 -8,3 8 5 20 11 Z 1005,4 50 0,0
25.10.2020 01:00:00 - - - - - - - - - -
25.10.2020 00:00:00 -3,2 -3,9 8 4 14 7 ZW 1004,9 50 0,0
24.10.2020 23:00:00 -3,4 -4,8 6 3 10 6 WZW 1004,6 50 0,0
24.10.2020 22:00:00 -2,7 -3,7 4 2 8 4 WZW 1004,3 50 0,0
24.10.2020 21:00:00 -1,0 -1,7 4 2 8 5 NNW 1004,2 48 0,0
24.10.2020 20:00:00 -0,2 -2,3 4 2 8 5 Z 1003,8 50 0,0
24.10.2020 19:00:00 -0,3 -2,4 6 3 14 8 O 1003,5 50 0,0
24.10.2020 18:00:00 -0,3 -2,5 3 2 22 12 N 1003,2 47 0,0
24.10.2020 17:00:00 -0,2 -2,4 15 8 21 12 W 1003,0 17 0,0
24.10.2020 16:00:00 -0,1 -2,8 14 7 21 12 W 1003,2 50 0,0
24.10.2020 15:00:00 -0,1 -3,3 14 8 22 12 W 1003,0 50 0,0
24.10.2020 14:00:00 0,0 -3,4 14 8 21 12 W 1002,8 50 0,0
24.10.2020 13:00:00 -0,2 -3,5 17 9 24 13 W 1002,5 50 0,0
24.10.2020 12:00:00 -0,3 -4,5 13 7 22 12 W 1002,3 45 0,0
24.10.2020 11:00:00 -0,3 -4,5 10 6 16 9 WNW 1002,0 50 0,0
24.10.2020 10:00:00 -0,8 -5,0 0 0 10 5 N 1001,7 44 0,0
24.10.2020 09:00:00 -1,2 -5,2 11 6 23 13 WNW 1001,6 50 0,0
24.10.2020 08:00:00 -0,4 -3,9 11 6 23 12 WNW 1000,8 47 0,0
24.10.2020 07:00:00 -0,5 -3,5 13 7 24 13 W 1000,6 13 -
24.10.2020 06:00:00 -0,3 -4,0 14 8 25 14 WNW 1000,3 46 0,0
24.10.2020 05:00:00 -0,3 -4,4 13 7 23 12 WNW 1000,0 50 0,0
24.10.2020 04:00:00 -1,2 -3,1 3 1 14 7 N 999,9 50 0,0
24.10.2020 03:00:00 -1,4 -3,0 6 4 28 15 W 999,6 50 0,0
24.10.2020 02:00:00 -0,9 -2,3 19 10 31 17 WNW 999,1 26 -
24.10.2020 01:00:00 -0,8 -1,8 18 10 36 20 NW 998,5 8 0,0
24.10.2020 00:00:00 -0,7 -2,0 24 13 37 20 WNW 997,9 22 0,0
23.10.2020 23:00:00 -0,7 -2,4 22 12 33 18 WNW 997,7 39 0,0
23.10.2020 22:00:00 -0,6 -2,7 22 12 34 19 W 997,1 7 0,0
23.10.2020 21:00:00 -1,4 -3,4 18 10 33 18 W 996,8 26 -
23.10.2020 20:00:00 -1,3 -3,5 19 10 29 16 W 996,6 41 0,0
23.10.2020 19:00:00 -2,1 -4,0 16 9 24 13 W 996,4 36 0,0
23.10.2020 18:00:00 -2,2 -4,1 17 9 32 17 WNW 996,1 27 0,0
23.10.2020 17:00:00 -2,8 -5,0 15 8 23 12 W 996,1 32 0,0
23.10.2020 16:00:00 -3,3 -5,8 13 7 25 13 W 996,1 10 0,0
23.10.2020 15:00:00 -3,4 -5,4 8 5 22 12 W 996,0 20 0,0
23.10.2020 14:00:00 -3,6 -5,3 15 8 27 15 W 995,6 25 0,0
23.10.2020 13:00:00 -3,3 -4,9 18 10 29 16 WNW 995,2 14 -
23.10.2020 12:00:00 -3,3 -5,2 11 6 24 13 NW 995,0 17 0,1
23.10.2020 11:00:00 -3,4 -5,3 8 5 19 10 W 994,6 3,1 0,1
23.10.2020 10:00:00 -3,6 -5,4 5 3 9 5 WZW 994,4 2,6 0,0
23.10.2020 09:00:00 -4,5 -6,3 4 2 16 8 ZW 994,3 32 0,0
23.10.2020 08:00:00 -5,4 -7,1 3 2 13 7 NW 994,2 50 0,0
23.10.2020 07:00:00 -7,7 -9,3 5 3 11 6 WZW 994,5 50 0,0
23.10.2020 06:00:00 -6,9 -8,7 4 2 8 5 W 994,5 30 0,0
23.10.2020 05:00:00 -5,9 -7,6 4 2 10 5 W 994,7 50 0,0
23.10.2020 04:00:00 -7,4 -9,2 4 2 7 4 Z 995,5 50 0,0
23.10.2020 03:00:00 -6,1 -7,5 2 1 7 4 Z 995,5 50 0,0
23.10.2020 02:00:00 -6,9 -8,1 0 0 8 5 N 996,0 3,9 0,1
23.10.2020 01:00:00 -7,2 -8,7 3 2 - - ZZW 996,6 11 0,1
23.10.2020 00:00:00 -6,7 -8,4 7 4 10 5 Z 997,0 7 0,1
22.10.2020 23:00:00 -7,6 -9,1 3 1 9 5 ZW 997,7 6 0,0
22.10.2020 22:00:00 -6,8 -8,6 9 5 12 6 Z 997,8 10 0,1
22.10.2020 21:00:00 -7,1 -8,6 4 2 9 5 ZW 998,2 6 0,0
22.10.2020 20:00:00 -6,2 -7,7 4 2 10 5 Z 998,6 2,3 0,1
22.10.2020 19:00:00 -6,1 -7,9 6 4 10 5 Z 998,8 8 0,2
22.10.2020 18:00:00 -6,2 -7,9 3 2 4 2 WZW 999,0 20 0,0
22.10.2020 17:00:00 -5,9 -8,0 2 1 5 3 NNW 999,2 9 0,0
22.10.2020 16:00:00 -6,2 -8,3 0 0 6 3 N 999,6 50 -
22.10.2020 15:00:00 -5,6 -8,5 3 1 8 4 NNW 999,9 50 0,0
22.10.2020 14:00:00 -5,5 -8,6 3 2 5 3 N 1000,3 50 0,0
22.10.2020 13:00:00 -5,3 -8,4 3 1 10 6 W 1000,7 50 0,0
22.10.2020 12:00:00 -5,5 -8,5 3 1 10 5 ONO 1001,0 50 0,0
22.10.2020 11:00:00 -5,1 -8,3 7 4 21 11 NNW 1001,4 50 0,0
22.10.2020 10:00:00 -5,9 -8,6 10 5 33 18 O 1001,7 50 0,0
22.10.2020 09:00:00 -5,9 -8,3 18 10 34 18 O 1002,1 50 0,0
22.10.2020 08:00:00 -5,5 -8,2 6 3 32 18 NO 1002,2 50 0,0
22.10.2020 07:00:00 -5,3 -7,9 3 2 23 12 WZW 1002,4 50 0,0
22.10.2020 06:00:00 -5,0 -7,8 8 4 30 16 Z 1002,7 50 0,0
22.10.2020 05:00:00 -5,2 -7,8 9 5 29 16 OZO 1003,1 50 0,0
22.10.2020 04:00:00 -4,7 -7,8 15 8 31 17 OZO 1003,6 50 0,0
22.10.2020 03:00:00 -4,5 -7,8 11 6 34 18 O 1004,5 50 0,0
22.10.2020 02:00:00 -4,8 -7,7 25 13 42 23 O 1005,0 50 0,0
22.10.2020 01:00:00 - - - - 48 26 - - - -
22.10.2020 00:00:00 - - - - 45 24 - - - -

tt = temperatuur
td = dauwpunt
ff = windsnelheid
fx = windstoten
dd = windrichting
ppp = luchtdruk
vv = zicht
rr = neerslag

Weerstations in de omgeving